Paynesville, MN

6:57 AM CDT on August 19, 2017 (GMT -0500)
Paynesville

Weather History for KPEX - April, 2013

Change the Weather History Date:

Friday, April 5, 2013

  Actual Average (KLJF) Record (KLJF)
Temperature  
Mean Temperature 28 °F -  
Max Temperature 34 °F 51 °F 80 °F (1991)
Min Temperature 22 °F 29 °F 9 °F (1979)
Degree Days  
Heating Degree Days 37    
Moisture  
Dew Point 24 °F    
Average Humidity 78    
Maximum Humidity 89    
Minimum Humidity 55    
Precipitation  
Precipitation 0.00 in - - ()
Sea Level Pressure  
Sea Level Pressure 30.10 in    
Wind  
Wind Speed 8 mph (East)    
Max Wind Speed 21 mph    
Max Gust Speed 25 mph    
Visibility 10 miles    
Events Snow    
Averages and records for this station are not official NWS values.
T = Trace of Precipitation, MM = Missing Value Source: NWS Daily Summary

Daily Weather History Graph

Daily Weather History Graph

Search for Another Location

Airport or City:

Trip Planner

Search our weather history database for the weather conditions in past years. The results will help you decide how hot, cold, wet, or windy it might be!

Date:

Astronomy

Apr. 05, 2013 Rise Set
Actual Time 6:51 AM CDT 7:52 PM CDT
Civil Twilight 6:21 AM CDT 8:22 PM CDT
Nautical Twilight 5:45 AM CDT 8:58 PM CDT
Astronomical Twilight 5:07 AM CDT 9:37 PM CDT
Moon 4:12 AM CDT (4/5) 3:05 PM CDT (4/5)
Length of Visible Light 14h 01m
Length of Day
13h 01m
Waning Crescent, 23% of the Moon is Illuminated
Apr 5
Waning Crescent
Apr 10
New
Apr 18
First Quarter
Apr 25
Full
May 2
Last Quarter

Hourly Weather History & Observations

Time (CDT) Temp. Windchill Dew Point Humidity Pressure Visibility Wind Dir Wind Speed Gust Speed Precip Events Conditions
12:13 AM 28.0 °F 20.8 °F 22.1 °F 78% 30.20 in 10.0 mi NNW 6.9 mph - N/A   Clear
12:33 AM 27.5 °F 21.1 °F 21.9 °F 80% 30.21 in 10.0 mi NW 5.8 mph - N/A   Clear
12:53 AM 27.3 °F 20.9 °F 21.6 °F 79% 30.21 in 10.0 mi NNW 5.8 mph - N/A   Clear
1:13 AM 27.0 °F 18.7 °F 21.2 °F 79% 30.21 in 10.0 mi NNW 8.1 mph - N/A   Clear
1:33 AM 26.6 °F 21.2 °F 21.0 °F 79% 30.22 in 10.0 mi North 4.6 mph - N/A   Clear
1:52 AM 26.2 °F - 21.0 °F 81% 30.22 in 10.0 mi Calm Calm - N/A   Clear
2:13 AM 26.1 °F 21.9 °F 20.7 °F 80% 30.22 in 10.0 mi North 3.5 mph - N/A   Clear
2:33 AM 25.7 °F 21.5 °F 20.3 °F 80% 30.22 in 10.0 mi North 3.5 mph - N/A   Clear
2:52 AM 25.5 °F - 20.3 °F 81% 30.21 in 10.0 mi Calm Calm - N/A   Clear
3:13 AM 25.2 °F 20.9 °F 20.3 °F 82% 30.22 in 10.0 mi North 3.5 mph - N/A   Clear
3:33 AM 25.2 °F 19.5 °F 20.1 °F 81% 30.22 in 10.0 mi North 4.6 mph - N/A   Clear
3:52 AM 25.2 °F 20.9 °F 19.9 °F 81% 30.22 in 10.0 mi North 3.5 mph - N/A   Clear
4:13 AM 24.8 °F 19.1 °F 20.1 °F 82% 30.22 in 10.0 mi NNE 4.6 mph - N/A   Clear
4:32 AM 24.6 °F 20.3 °F 20.3 °F 84% 30.22 in 10.0 mi NNE 3.5 mph - N/A   Clear
4:53 AM 24.4 °F 17.5 °F 20.1 °F 84% 30.23 in 10.0 mi NNE 5.8 mph - N/A   Clear
5:13 AM 23.7 °F - 19.9 °F 85% 30.23 in 10.0 mi Calm Calm - N/A   Clear
5:32 AM 23.7 °F 19.3 °F 19.9 °F 85% 30.22 in 10.0 mi NNE 3.5 mph - N/A   Clear
5:53 AM 23.4 °F 18.9 °F 19.4 °F 85% 30.22 in 10.0 mi NE 3.5 mph - N/A   Clear
6:13 AM 23.2 °F 18.7 °F 19.4 °F 85% 30.22 in 10.0 mi NE 3.5 mph - N/A   Clear
6:33 AM 23.0 °F 18.4 °F 19.0 °F 85% 30.22 in 10.0 mi NE 3.5 mph - N/A   Clear
6:53 AM 22.8 °F - 19.0 °F 85% 30.22 in 10.0 mi Calm Calm - N/A   Clear
7:13 AM 23.0 °F - 19.0 °F 85% 30.22 in 10.0 mi Calm Calm - N/A   Clear
7:33 AM 23.7 °F 17.8 °F 19.9 °F 85% 30.21 in 10.0 mi NE 4.6 mph - N/A   Clear
7:53 AM 25.5 °F 18.7 °F 19.0 °F 76% 30.21 in 10.0 mi ENE 5.8 mph - N/A   Clear
8:13 AM 26.6 °F 19.1 °F 18.3 °F 71% 30.21 in 10.0 mi ENE 6.9 mph - N/A   Clear
8:33 AM 27.5 °F 21.1 °F 17.6 °F 66% 30.21 in 10.0 mi East 5.8 mph - N/A   Clear
8:52 AM 29.1 °F 20.6 °F 17.2 °F 61% 30.21 in 10.0 mi East 9.2 mph - N/A   Clear
9:13 AM 30.4 °F 22.2 °F 18.7 °F 62% 30.20 in 10.0 mi ESE 9.2 mph - N/A   Scattered Clouds
9:33 AM 30.9 °F 21.7 °F 18.1 °F 59% 30.20 in 10.0 mi East 11.5 mph - N/A   Scattered Clouds
9:53 AM 31.8 °F 24.6 °F 18.9 °F 59% 30.20 in 10.0 mi East 8.1 mph - N/A   Scattered Clouds
10:13 AM 32.0 °F 24.2 °F 18.7 °F 58% 30.20 in 10.0 mi SE 9.2 mph - N/A   Mostly Cloudy
10:33 AM 32.2 °F 25.0 °F 19.4 °F 59% 30.19 in 10.0 mi ESE 8.1 mph - N/A   Overcast
10:53 AM 33.1 °F 24.9 °F 19.8 °F 58% 30.18 in 10.0 mi ESE 10.4 mph - N/A   Overcast
11:13 AM 33.4 °F 25.9 °F 19.0 °F 56% 30.18 in 10.0 mi SE 9.2 mph - N/A   Overcast
11:33 AM 34.0 °F 25.5 °F 19.4 °F 55% 30.17 in 10.0 mi ESE 11.5 mph - N/A   Overcast
11:53 AM 34.0 °F 25.0 °F 19.4 °F 55% 30.16 in 10.0 mi ESE 12.7 mph - N/A   Overcast
12:13 PM 34.3 °F 25.5 °F 19.8 °F 55% 30.15 in 10.0 mi ESE 12.7 mph - N/A   Overcast
12:32 PM 34.5 °F 27.9 °F 20.5 °F 57% 30.16 in 10.0 mi SE 8.1 mph - N/A   Overcast
12:53 PM 34.7 °F 28.1 °F 21.0 °F 57% 30.16 in 10.0 mi SE 8.1 mph - N/A   Overcast
1:13 PM 34.7 °F 28.1 °F 21.0 °F 57% 30.15 in 10.0 mi SSE 8.1 mph - N/A   Overcast
1:33 PM 34.3 °F 26.5 °F 21.2 °F 59% 30.14 in 10.0 mi SSE 10.4 mph - N/A   Overcast
1:53 PM 31.8 °F 24.6 °F 27.5 °F 84% 30.13 in 1.2 mi SE 8.1 mph - N/A Snow Light Snow
2:13 PM 32.0 °F 24.8 °F 28.0 °F 85% 30.13 in 3.0 mi ESE 8.1 mph - N/A Snow Light Snow
2:33 PM 32.2 °F 25.0 °F 28.2 °F 85% 30.10 in 2.5 mi ESE 8.1 mph - N/A Snow Light Snow
2:53 PM 32.5 °F 24.2 °F 28.9 °F 87% 30.10 in 7.0 mi SE 10.4 mph - N/A Snow Light Snow
3:13 PM 32.9 °F 23.2 °F 29.3 °F 87% 30.06 in 10.0 mi ESE 13.8 mph 19.6 mph N/A   Overcast
3:33 PM 33.8 °F 24.8 °F 29.1 °F 83% 30.06 in 10.0 mi SE 12.7 mph 19.6 mph N/A   Mostly Cloudy
3:53 PM 33.6 °F 22.6 °F 29.1 °F 84% 30.05 in 10.0 mi ESE 18.4 mph - N/A   Overcast
4:13 PM 33.6 °F 22.6 °F 28.9 °F 83% 30.04 in 10.0 mi ESE 18.4 mph 23.0 mph N/A   Overcast
4:33 PM 33.6 °F 21.9 °F 29.3 °F 84% 30.02 in 10.0 mi ESE 20.7 mph 25.3 mph N/A   Overcast
4:52 PM 33.6 °F 24.1 °F 29.3 °F 84% 30.00 in 10.0 mi ESE 13.8 mph 24.2 mph N/A   Overcast
5:13 PM 33.8 °F 23.5 °F 29.7 °F 85% 30.00 in 10.0 mi ESE 16.1 mph - N/A   Overcast
5:32 PM 34.0 °F 24.6 °F 29.8 °F 85% 29.99 in 10.0 mi East 13.8 mph 23.0 mph N/A   Mostly Cloudy
5:53 PM 33.8 °F 23.2 °F 29.8 °F 85% 29.97 in 10.0 mi ESE 17.3 mph 23.0 mph N/A   Mostly Cloudy
6:13 PM 34.0 °F 25.0 °F 30.0 °F 85% 29.97 in 10.0 mi East 12.7 mph 19.6 mph N/A   Overcast
6:33 PM 34.0 °F 24.2 °F 30.2 °F 86% 29.97 in 10.0 mi East 15.0 mph 20.7 mph N/A   Overcast
6:52 PM 34.0 °F 24.2 °F 30.2 °F 86% 29.97 in 10.0 mi ESE 15.0 mph 20.7 mph N/A   Overcast
7:13 PM 34.0 °F 24.2 °F 30.4 °F 87% 29.96 in 10.0 mi ESE 15.0 mph 23.0 mph N/A   Overcast
7:33 PM 33.8 °F 24.3 °F 30.2 °F 87% 29.94 in 10.0 mi ESE 13.8 mph 20.7 mph N/A   Mostly Cloudy
7:53 PM 33.6 °F 24.6 °F 30.2 °F 87% 29.94 in 10.0 mi East 12.7 mph 20.7 mph N/A   Mostly Cloudy
8:13 PM 33.3 °F 23.7 °F 30.2 °F 89% 29.94 in 10.0 mi ESE 13.8 mph - N/A   Scattered Clouds
8:33 PM 33.4 °F 23.9 °F 30.2 °F 88% 29.93 in 10.0 mi East 13.8 mph 23.0 mph N/A   Mostly Cloudy
8:52 PM 33.3 °F 23.2 °F 30.2 °F 89% 29.92 in 10.0 mi ESE 15.0 mph - N/A   Overcast
9:13 PM 33.3 °F 23.7 °F 30.2 °F 89% 29.91 in 10.0 mi East 13.8 mph 23.0 mph N/A   Scattered Clouds
9:33 PM 33.3 °F 22.1 °F 30.2 °F 89% 29.90 in 10.0 mi East 18.4 mph 25.3 mph N/A   Clear
9:53 PM 33.3 °F 24.1 °F 30.2 °F 89% 29.89 in 10.0 mi East 12.7 mph 20.7 mph N/A   Clear
10:13 PM 33.4 °F 23.9 °F 30.2 °F 88% 29.88 in 10.0 mi East 13.8 mph 23.0 mph N/A   Scattered Clouds
10:33 PM 33.4 °F 23.9 °F 30.2 °F 88% 29.87 in 10.0 mi East 13.8 mph 21.9 mph N/A   Mostly Cloudy
10:53 PM 33.8 °F 24.3 °F 30.6 °F 88% 29.86 in 10.0 mi East 13.8 mph 23.0 mph N/A   Mostly Cloudy
11:13 PM 33.8 °F 24.8 °F 30.6 °F 88% 29.84 in 10.0 mi ESE 12.7 mph 24.2 mph N/A   Mostly Cloudy
11:32 PM 33.8 °F 24.8 °F 30.6 °F 88% 29.84 in 10.0 mi East 12.7 mph 21.9 mph N/A   Overcast
11:53 PM 34.0 °F 24.6 °F 30.4 °F 87% 29.83 in 10.0 mi East 13.8 mph 19.6 mph N/A   Mostly Cloudy